FW2889 Weather Reports


Display with metric or nautical units.
time (UTC)temp
F
wind
direction
speed
MPH
gust
MPH
rain 1hr
in
rain 24hr
in
rain mn
in
humidity
%
barometer
mb
20260505073041 70 315 3.0 9.0 0.00 0.00 0.00 37 995.0
20260505070041 68 0 3.0 9.0 0.00 0.00 0.00 36 995.0
20260505063041 67 0 4.0 10.0 0.00 0.00 0.00 39 995.1
20260505053101 62 0 4.0 9.0 0.00 0.00 0.00 44 995.1
20260505050121 60 0 4.0 9.0 0.00 0.00 0.00 46 995.2
20260505040043 56 315 3.0 6.0 0.00 0.00 0.00 49 995.3
20260505033043 54 0 5.0 9.0 0.00 0.00 0.00 48 995.3
20260505030040 53 0 7.0 12.0 0.00 0.00 0.00 47 995.2
20260505023040 52 0 5.0 11.0 0.00 0.00 0.00 47 995.1
20260505020041 51 0 6.0 12.0 0.00 0.00 0.00 48 995.0
20260505013042 51 0 6.0 11.0 0.00 0.00 0.00 48 994.9
20260505003042 52 0 5.0 11.0 0.00 0.00 0.00 47 994.9
20260504233042 52 0 3.0 12.0 0.00 0.00 0.00 47 994.7
20260504230042 53 0 6.0 11.0 0.00 0.00 0.00 47 994.7
20260504223041 53 0 4.0 11.0 0.00 0.00 0.00 47 994.6
20260504220041 53 0 2.0 5.0 0.00 0.00 0.00 46 994.6
20260504213041 53 90 1.0 3.0 0.00 0.00 0.00 47 994.5
20260504203042 54 113 2.0 4.0 0.00 0.00 0.00 47 994.7
20260504200043 55 113 2.0 3.0 0.00 0.00 0.00 47 994.7
20260504193042 55 90 2.0 4.0 0.00 0.00 0.00 46 994.6
20260504183042 56 90 1.0 3.0 0.00 0.00 0.00 46 994.8
20260504180042 57 68 1.0 4.0 0.00 0.00 0.00 44 994.8
20260504173142 57 45 1.0 3.0 0.00 0.00 0.00 47 994.8
20260504130202 67 90 2.0 7.0 0.00 0.00 0.00 32 994.5
20260504090141 63 68 3.0 11.0 0.00 0.00 0.00 36 996.5